DW4369 Weather Reports


Display with metric or nautical units.
time (UTC)temp
F
wind
direction
speed
MPH
gust
MPH
rain 1hr
in
rain 24hr
in
rain mn
in
humidity
%
barometer
mb
20260906111557 72 48 3.0 9.0 0.00 0.00 0.00 90 1014.8
20260906110020 72 39 6.0 12.0 0.00 0.00 0.00 90 1014.8
20260906104513 72 47 5.0 10.0 0.00 0.00 0.00 89 1014.6
20260906103045 72 61 3.0 6.0 0.00 0.00 0.00 88 1014.5
20260906101530 72 19 4.0 8.0 0.00 0.00 0.00 88 1014.3
20260906100037 72 32 5.0 9.0 0.00 0.00 0.00 88 1014.1
20260906094518 73 44 6.0 10.0 0.00 0.00 0.00 89 1014.1
20260906093033 73 40 2.0 8.0 0.00 0.00 0.00 89 1014.1
20260906091601 73 22 3.0 7.0 0.00 0.00 0.00 89 1014.1
20260906090018 73 36 2.0 6.0 0.00 0.00 0.00 89 1014.1
20260906084549 73 50 4.0 9.0 0.00 0.00 0.00 89 1014.3
20260906083021 72 41 4.0 6.0 0.00 0.00 0.00 89 1014.3
20260906081529 72 335 2.0 6.0 0.00 0.00 0.00 89 1014.4
20260906080021 72 47 4.0 6.0 0.00 0.00 0.00 89 1014.3
20260906074554 72 36 3.0 6.0 0.00 0.00 0.00 89 1014.3
20260906073030 72 19 4.0 7.0 0.00 0.00 0.00 89 1014.3
20260906071522 72 51 3.0 10.0 0.00 0.00 0.00 89 1014.2
20260906070035 72 42 5.0 11.0 0.00 0.00 0.00 89 1014.3
20260906064516 72 57 5.0 11.0 0.00 0.00 0.00 89 1014.5
20260906063022 72 26 5.0 12.0 0.00 0.00 0.00 89 1014.6
20260906061546 72 46 3.0 7.0 0.00 0.00 0.00 89 1014.5
20260906060017 71 92 7.0 13.0 0.00 0.00 0.00 89 1014.7
20260906054528 72 9 4.0 9.0 0.00 0.00 0.00 89 1014.5
20260906053037 72 43 5.0 9.0 0.00 0.00 0.00 89 1014.3
20260906051523 72 109 6.0 12.0 0.00 0.00 0.00 89 1014.2
20260906050047 72 360 6.0 10.0 0.00 0.00 0.00 89 1014.0
20260906044550 72 54 2.0 6.0 0.00 0.00 0.00 89 1014.0
20260906043014 72 41 2.0 6.0 0.00 0.00 0.00 89 1013.8
20260906041541 73 59 2.0 9.0 0.00 0.00 0.00 89 1013.8
20260906040020 74 75 3.0 10.0 0.00 0.00 0.00 88 1013.6
20260906034524 74 97 4.0 11.0 0.00 0.00 0.00 88 1013.5
20260906033033 75 28 5.0 12.0 0.00 0.00 0.00 88 1013.5
20260906031513 75 36 5.0 13.0 0.00 0.00 0.00 87 1013.4
20260906030024 76 29 7.0 12.0 0.00 0.00 0.00 86 1013.3
20260906024532 77 97 6.0 13.0 0.00 0.00 0.00 86 1013.3
20260906023017 77 82 3.0 9.0 0.00 0.00 0.00 85 1013.0
20260906021545 78 32 9.0 16.0 0.00 0.00 0.00 84 1013.1
20260906020015 79 93 5.0 12.0 0.00 0.00 0.00 85 1012.9
20260906014544 80 39 6.0 13.0 0.00 0.00 0.00 83 1012.6
20260906013030 81 96 7.0 13.0 0.00 0.00 0.00 82 1012.3
20260906011513 82 16 7.0 17.0 0.00 0.00 0.00 81 1012.2
20260906010045 83 23 6.0 14.0 0.00 0.00 0.00 82 1012.1
20260906004538 84 353 5.0 11.0 0.00 0.00 0.00 82 1011.7
20260906003019 85 4 5.0 10.0 0.00 0.00 0.00 79 1011.4
20260906001523 85 39 3.0 8.0 0.00 0.00 0.00 79 1011.3
20260906000033 85 28 2.0 9.0 0.00 0.00 0.00 79 1011.5
20260905234518 86 32 1.0 4.0 0.00 0.00 0.00 79 1011.4
20260905233032 87 51 2.0 6.0 0.00 0.00 0.00 77 1011.4
20260905231555 88 339 1.0 8.0 0.00 0.00 0.00 75 1011.3
20260905230030 88 16 2.0 6.0 0.00 0.00 0.00 75 1011.2
20260905224520 89 39 1.0 9.0 0.00 0.00 0.00 76 1011.1
20260905223033 89 26 2.0 7.0 0.00 0.00 0.00 73 1011.1
20260905221517 90 305 1.0 5.0 0.00 0.00 0.00 75 1011.1
20260905220045 90 34 2.0 9.0 0.00 0.00 0.00 74 1011.1
20260905214534 90 34 2.0 9.0 0.00 0.00 0.00 75 1011.0
20260905213022 90 40 1.0 4.0 0.00 0.00 0.00 74 1011.1
20260905211532 90 297 1.0 3.0 0.00 0.00 0.00 74 1011.2
20260905210014 91 303 0.0 5.0 0.00 0.00 0.00 75 1011.3
20260905204528 91 41 2.0 5.0 0.00 0.00 0.00 72 1011.4
20260905203029 91 64 4.0 9.0 0.00 0.00 0.00 70 1011.4
20260905201517 90 124 1.0 6.0 0.00 0.00 0.00 68 1011.3
20260905200026 91 22 3.0 11.0 0.00 0.00 0.00 70 1011.4
20260905194517 93 309 1.0 6.0 0.00 0.00 0.00 69 1011.4
20260905193031 92 285 1.0 5.0 0.00 0.00 0.00 68 1011.5
20260905191541 93 349 0.0 5.0 0.00 0.00 0.00 70 1011.7
20260905190031 92 320 1.0 6.0 0.00 0.00 0.00 68 1011.8
20260905184523 93 277 1.0 5.0 0.00 0.00 0.00 69 1012.0
20260905183032 93 294 1.0 5.0 0.00 0.00 0.00 67 1012.0
20260905181527 93 119 2.0 5.0 0.00 0.00 0.00 67 1012.1
20260905180038 93 274 1.0 4.0 0.00 0.00 0.00 68 1012.3
20260905174518 92 269 0.0 2.0 0.00 0.00 0.00 67 1012.4
20260905173029 92 271 1.0 3.0 0.00 0.00 0.00 67 1012.4
20260905171558 92 295 1.0 5.0 0.00 0.00 0.00 69 1012.4
20260905170022 92 358 2.0 6.0 0.00 0.00 0.00 67 1012.5
20260905164527 92 277 1.0 5.0 0.00 0.00 0.00 70 1012.7
20260905163022 92 210 1.0 4.0 0.00 0.00 0.00 68 1012.6
20260905161550 92 201 1.0 3.0 0.00 0.00 0.00 69 1012.7
20260905160041 92 201 0.0 0.0 0.00 0.00 0.00 72 1012.7
20260905154525 92 202 0.0 0.0 0.00 0.00 0.00 69 1012.6
20260905153018 91 201 0.0 0.0 0.00 0.00 0.00 71 1012.7
20260905151529 90 201 0.0 0.0 0.00 0.00 0.00 71 1012.6
20260905150024 91 201 0.0 0.0 0.00 0.00 0.00 73 1012.5
20260905144527 91 201 0.0 0.0 0.00 0.00 0.00 74 1012.3
20260905143031 89 201 0.0 0.0 0.00 0.00 0.00 76 1012.5
20260905141537 87 201 0.0 0.0 0.00 0.00 0.00 79 1012.4
20260905140016 85 201 0.0 0.0 0.00 0.00 0.00 80 1012.7
20260905134516 85 201 0.0 0.0 0.00 0.00 0.00 81 1012.6
20260905133045 83 201 0.0 0.0 0.00 0.00 0.00 85 1012.5
20260905131553 81 201 0.0 0.0 0.00 0.00 0.00 88 1012.5
20260905130023 80 201 0.0 0.0 0.00 0.00 0.00 88 1012.3
20260905124532 78 201 0.0 0.0 0.00 0.00 0.00 88 1012.3
20260905123025 77 201 0.0 0.0 0.00 0.00 0.00 89 1012.2
20260905121554 76 201 0.0 0.0 0.00 0.00 0.00 89 1012.1
20260905120027 74 201 0.0 0.0 0.00 0.00 0.00 88 1012.0
20260905114521 74 201 0.0 0.0 0.00 0.00 0.00 88 1012.0
20260905113026 74 202 0.0 0.0 0.00 0.00 0.00 87 1011.9